Data No.,UTC Date,UTC Time,Latitude,Longitude,Course(deg),Temp(degC),Sal(psu)
8998,2003/9/14,19:15:00,00-00.0700N,151-08.6700E,327,30.028,33.9138
8999,2003/9/14,19:16:00,00-00.2500N,151-08.5500E,327,30.038,33.9182
9000,2003/9/14,19:17:00,00-00.4600N,151-08.4200E,327,30.034,33.921
9001,2003/9/14,19:18:00,00-00.6800N,151-08.2800E,328,30.038,33.9227
9002,2003/9/14,19:19:00,00-00.8900N,151-08.1600E,328,30.026,33.9223
9003,2003/9/14,19:20:00,00-01.0800N,151-08.0400E,327,30,33.9227
9004,2003/9/14,19:21:00,00-01.2700N,151-07.9200E,327,29.999,33.9221
9005,2003/9/14,19:22:00,00-01.4600N,151-07.8000E,327,29.993,33.9203
9006,2003/9/14,19:23:00,00-01.6200N,151-07.6900E,327,29.996,33.9196
9007,2003/9/14,19:24:00,00-01.8900N,151-07.5300E,327,29.994,33.9186
9008,2003/9/14,19:25:00,00-01.9800N,151-07.4600E,327,29.986,33.9183
9009,2003/9/14,19:26:00,00-02.1200N,151-07.3800E,327,29.982,33.9171
9010,2003/9/14,19:27:00,00-02.4500N,151-07.1700E,327,29.978,33.9159
9011,2003/9/14,19:28:00,00-02.6800N,151-07.0200E,326,29.989,33.9145
9012,2003/9/14,19:29:00,00-02.8700N,151-06.9000E,326,30.008,33.9124
9013,2003/9/14,19:30:00,00-03.0700N,151-06.7600E,327,30.003,33.9097
9014,2003/9/14,19:31:00,00-03.2400N,151-06.6500E,327,30.004,33.8967
9015,2003/9/14,19:32:00,00-03.4300N,151-06.5300E,327,30.018,33.8843
9016,2003/9/14,19:33:00,00-03.6200N,151-06.4100E,327,30.001,33.8848
9017,2003/9/14,19:34:00,00-03.8500N,151-06.2700E,327,30.012,33.8915
9018,2003/9/14,19:35:00,00-04.0600N,151-06.1300E,326,29.985,33.8943
9019,2003/9/14,19:36:00,00-04.2800N,151-06.0000E,327,29.975,33.8909
9020,2003/9/14,19:37:00,00-04.4000N,151-05.9200E,327,29.97,33.8894
9021,2003/9/14,19:38:00,00-04.6300N,151-05.7800E,327,29.964,33.8887
9022,2003/9/14,19:39:00,00-04.8700N,151-05.6300E,327,29.953,33.8884
9023,2003/9/14,19:40:00,00-05.0600N,151-05.5100E,327,29.951,33.889
9024,2003/9/14,19:41:00,00-05.2700N,151-05.3700E,327,29.956,33.8888
9025,2003/9/14,19:42:00,00-05.4400N,151-05.2600E,327,29.956,33.8868
9026,2003/9/14,19:43:00,00-05.6700N,151-05.1200E,327,29.937,33.8837
9027,2003/9/14,19:44:00,00-05.8700N,151-04.9900E,327,29.922,33.8817
9028,2003/9/14,19:45:00,00-06.0500N,151-04.8700E,327,29.928,33.8796
9029,2003/9/14,19:46:00,00-06.2700N,151-04.7400E,326,29.913,33.8758
9030,2003/9/14,19:47:00,00-06.3800N,151-04.6700E,327,29.899,33.8716
9031,2003/9/14,19:48:00,00-06.6300N,151-04.5100E,327,29.903,33.8704
9032,2003/9/14,19:49:00,00-06.8100N,151-04.4000E,327,29.91,33.8701
9033,2003/9/14,19:50:00,00-06.8800N,151-04.3500E,327,29.918,33.8702
9034,2003/9/14,19:51:00,00-07.2700N,151-04.1100E,327,29.939,33.8667
9035,2003/9/14,19:52:00,00-07.4500N,151-03.9900E,327,29.917,33.8631
9036,2003/9/14,19:53:00,00-07.6400N,151-03.8700E,327,29.931,33.8603
9037,2003/9/14,19:54:00,00-07.8400N,151-03.7500E,327,29.952,33.8578
9038,2003/9/14,19:55:00,00-08.0100N,151-03.6400E,327,29.967,33.859
9039,2003/9/14,19:56:00,00-08.2100N,151-03.5100E,327,29.985,33.8597
9040,2003/9/14,19:57:00,00-08.4000N,151-03.3900E,327,29.994,33.8607
9041,2003/9/14,19:58:00,00-08.6100N,151-03.2600E,327,29.998,33.8612
9042,2003/9/14,19:59:00,00-08.8600N,151-03.1100E,327,29.993,33.8581
9043,2003/9/14,20:00:00,00-09.0500N,151-02.9800E,327,29.99,33.8565
9045,2003/9/14,20:02:00,00-09.4200N,151-02.7500E,327,29.959,33.8489
9046,2003/9/14,20:03:00,00-09.6100N,151-02.6300E,327,29.955,33.8458
9047,2003/9/14,20:04:00,00-09.8400N,151-02.4900E,327,29.947,33.8438
9048,2003/9/14,20:05:00,00-10.0300N,151-02.3600E,327,29.936,33.8402
9049,2003/9/14,20:06:00,00-10.2000N,151-02.2600E,327,29.923,33.8381
9050,2003/9/14,20:07:00,00-10.3900N,151-02.1400E,327,29.908,33.8342
9051,2003/9/14,20:08:00,00-10.6100N,151-02.0000E,327,29.892,33.8312
9052,2003/9/14,20:09:00,00-10.8800N,151-01.8300E,327,29.893,33.83
9053,2003/9/14,20:10:00,00-11.0700N,151-01.7100E,327,29.875,33.8281
9054,2003/9/14,20:11:00,00-11.2900N,151-01.5700E,327,29.847,33.8235
9055,2003/9/14,20:12:00,00-11.4600N,151-01.4600E,327,29.847,33.8166
9056,2003/9/14,20:13:00,00-11.6200N,151-01.3700E,327,29.845,33.8075
9057,2003/9/14,20:14:00,00-11.9000N,151-01.1900E,326,29.837,33.8043
9058,2003/9/14,20:15:00,00-12.0900N,151-01.0600E,326,29.846,33.8027
9059,2003/9/14,20:16:00,00-12.2800N,151-00.9400E,327,29.862,33.7996
9060,2003/9/14,20:17:00,00-12.4900N,151-00.8100E,327,29.88,33.801
9061,2003/9/14,20:18:00,00-12.6700N,151-00.7000E,327,29.887,33.8047
9062,2003/9/14,20:19:00,00-12.8700N,151-00.5700E,327,29.894,33.8095
9063,2003/9/14,20:20:00,00-13.1000N,151-00.4200E,327,29.909,33.8119
9064,2003/9/14,20:21:00,00-13.2100N,151-00.3500E,327,29.913,33.8155
9065,2003/9/14,20:22:00,00-13.4700N,151-00.1900E,327,29.93,33.8174
9066,2003/9/14,20:23:00,00-13.6800N,151-00.0500E,327,29.927,33.8227
9067,2003/9/14,20:24:00,00-13.9100N,150-59.9100E,326,29.926,33.8235
9068,2003/9/14,20:25:00,00-14.1000N,150-59.7900E,327,29.922,33.8267
9069,2003/9/14,20:26:00,00-14.2900N,150-59.6700E,327,29.92,33.8294
9070,2003/9/14,20:27:00,00-14.5000N,150-59.5300E,327,29.926,33.8295
9071,2003/9/14,20:28:00,00-14.5900N,150-59.4800E,326,29.931,33.8321
9072,2003/9/14,20:29:00,00-14.9100N,150-59.2700E,327,29.924,33.8327
9073,2003/9/14,20:30:00,00-15.0900N,150-59.1500E,327,29.928,33.833
9074,2003/9/14,20:31:00,00-15.2900N,150-59.0300E,326,29.92,33.8324
9075,2003/9/14,20:32:00,00-15.5100N,150-58.8900E,326,29.904,33.831
9076,2003/9/14,20:33:00,00-15.6300N,150-58.8100E,327,29.903,33.8339
9077,2003/9/14,20:34:00,00-15.8700N,150-58.6600E,327,29.894,33.8341
9078,2003/9/14,20:35:00,00-16.1200N,150-58.5000E,327,29.889,33.8361
9079,2003/9/14,20:36:00,00-16.2400N,150-58.4200E,327,29.888,33.8372
9080,2003/9/14,20:37:00,00-16.4800N,150-58.2800E,327,29.895,33.8368
9081,2003/9/14,20:38:00,00-16.6700N,150-58.1600E,327,29.894,33.8396
9082,2003/9/14,20:39:00,00-16.9300N,150-57.9900E,326,29.894,33.8385
9083,2003/9/14,20:40:00,00-17.0900N,150-57.8900E,326,29.896,33.8389
9084,2003/9/14,20:41:00,00-17.3300N,150-57.7300E,327,29.892,33.8391
9085,2003/9/14,20:42:00,00-17.4800N,150-57.6400E,327,29.894,33.8389
9086,2003/9/14,20:43:00,00-17.6800N,150-57.5100E,326,29.892,33.8413
9087,2003/9/14,20:44:00,00-17.9300N,150-57.3500E,326,29.896,33.8453
9088,2003/9/14,20:45:00,00-18.1500N,150-57.2100E,327,29.899,33.846
9089,2003/9/14,20:46:00,00-18.3400N,150-57.0800E,326,29.893,33.847
9090,2003/9/14,20:47:00,00-18.5600N,150-56.9500E,327,29.889,33.8452
9091,2003/9/14,20:48:00,00-18.7000N,150-56.8600E,327,29.886,33.8404
9092,2003/9/14,20:49:00,00-18.9400N,150-56.7000E,327,29.882,33.8365
9093,2003/9/14,20:50:00,00-19.1200N,150-56.5900E,326,29.88,33.8338
9094,2003/9/14,20:51:00,00-19.3600N,150-56.4400E,327,29.876,33.8299
9095,2003/9/14,20:52:00,00-19.5500N,150-56.3100E,327,29.871,33.8281
9096,2003/9/14,20:53:00,00-19.7700N,150-56.1800E,327,29.878,33.8276
9097,2003/9/14,20:54:00,00-19.9400N,150-56.0600E,326,29.881,33.8261
9098,2003/9/14,20:55:00,00-20.1000N,150-55.9600E,327,29.887,33.8238
9099,2003/9/14,20:56:00,00-20.3100N,150-55.8300E,327,29.889,33.8225
9100,2003/9/14,20:57:00,00-20.5400N,150-55.6800E,326,29.884,33.8176
9101,2003/9/14,20:58:00,00-20.6400N,150-55.6200E,326,29.883,33.8142
9102,2003/9/14,20:59:00,00-20.9400N,150-55.4100E,326,29.877,33.8136
9103,2003/9/14,21:00:00,00-21.1800N,150-55.2600E,326,29.877,33.8112
9104,2003/9/14,21:01:00,00-21.3100N,150-55.1700E,326,29.873,33.8113
9105,2003/9/14,21:02:00,00-21.5500N,150-55.0200E,326,29.88,33.8126
9106,2003/9/14,21:03:00,00-21.8000N,150-54.8600E,326,29.877,33.815
9107,2003/9/14,21:04:00,00-22.0000N,150-54.7300E,326,29.877,33.8139
9108,2003/9/14,21:05:00,00-22.2100N,150-54.5900E,326,29.874,33.8137
9109,2003/9/14,21:06:00,00-22.4100N,150-54.4600E,326,29.866,33.8131
9110,2003/9/14,21:07:00,00-22.6100N,150-54.3300E,326,29.856,33.8134
9111,2003/9/14,21:08:00,00-22.7100N,150-54.2700E,326,29.838,33.8136
9112,2003/9/14,21:09:00,00-23.0000N,150-54.0800E,326,29.827,33.816
9113,2003/9/14,21:10:00,00-23.2200N,150-53.9300E,326,29.825,33.8209
9114,2003/9/14,21:11:00,00-23.4300N,150-53.7900E,326,29.816,33.8243
9115,2003/9/14,21:12:00,00-23.6000N,150-53.6800E,326,29.793,33.8255
9116,2003/9/14,21:13:00,00-23.8300N,150-53.5300E,326,29.771,33.8239
9117,2003/9/14,21:14:00,00-24.0000N,150-53.4300E,326,29.765,33.8107
9118,2003/9/14,21:15:00,00-24.1900N,150-53.3000E,326,29.752,33.8006
9119,2003/9/14,21:16:00,00-24.4400N,150-53.1300E,326,29.749,33.7966
9120,2003/9/14,21:17:00,00-24.6200N,150-53.0200E,327,29.759,33.7972
9121,2003/9/14,21:18:00,00-24.8200N,150-52.8900E,327,29.758,33.8003
9122,2003/9/14,21:19:00,00-25.0600N,150-52.7300E,326,29.76,33.8016
9123,2003/9/14,21:20:00,00-25.1200N,150-52.6900E,326,29.759,33.8034
9124,2003/9/14,21:21:00,00-25.4500N,150-52.4800E,326,29.76,33.8027
9125,2003/9/14,21:22:00,00-25.6700N,150-52.3300E,326,29.759,33.7997
9126,2003/9/14,21:23:00,00-25.8400N,150-52.2200E,326,29.757,33.7957
9127,2003/9/14,21:24:00,00-26.0400N,150-52.0900E,326,29.758,33.7905
9128,2003/9/14,21:25:00,00-26.2200N,150-51.9700E,326,29.756,33.7864
9129,2003/9/14,21:26:00,00-26.3700N,150-51.8700E,326,29.76,33.7874
9130,2003/9/14,21:27:00,00-26.6800N,150-51.6700E,327,29.755,33.7917
9131,2003/9/14,21:28:00,00-26.8900N,150-51.5400E,327,29.76,33.7933
9132,2003/9/14,21:29:00,00-27.1000N,150-51.4000E,326,29.771,33.7951
9133,2003/9/14,21:30:00,00-27.2400N,150-51.3100E,327,29.772,33.7933
9134,2003/9/14,21:31:00,00-27.5000N,150-51.1400E,326,29.77,33.7926
9135,2003/9/14,21:32:00,00-27.6900N,150-51.0200E,326,29.775,33.8034
9136,2003/9/14,21:33:00,00-27.8800N,150-50.8900E,326,29.784,33.8054
9137,2003/9/14,21:34:00,00-28.0500N,150-50.7800E,326,29.782,33.8063
9138,2003/9/14,21:35:00,00-28.2600N,150-50.6400E,326,29.783,33.8067
9139,2003/9/14,21:36:00,00-28.5100N,150-50.4800E,326,29.776,33.8083
9140,2003/9/14,21:37:00,00-28.7300N,150-50.3400E,326,29.778,33.8101
9141,2003/9/14,21:38:00,00-28.8700N,150-50.2400E,326,29.781,33.8115
9142,2003/9/14,21:39:00,00-29.0800N,150-50.1100E,326,29.781,33.812
9143,2003/9/14,21:40:00,00-29.3300N,150-49.9400E,326,29.782,33.8124
9144,2003/9/14,21:41:00,00-29.5400N,150-49.8000E,326,29.775,33.8118
9145,2003/9/14,21:42:00,00-29.7400N,150-49.6700E,326,29.777,33.8129
9146,2003/9/14,21:43:00,00-29.8100N,150-49.6200E,326,29.787,33.8124
9147,2003/9/14,21:44:00,00-30.1100N,150-49.4300E,326,29.795,33.8121
9148,2003/9/14,21:45:00,00-30.3000N,150-49.3100E,326,29.802,33.8135
9149,2003/9/14,21:46:00,00-30.5500N,150-49.1400E,326,29.806,33.8142
9150,2003/9/14,21:47:00,00-30.7700N,150-49.0000E,326,29.814,33.8139
9151,2003/9/14,21:48:00,00-30.9600N,150-48.8700E,327,29.82,33.8147
9152,2003/9/14,21:49:00,00-31.1800N,150-48.7300E,327,29.827,33.814
9153,2003/9/14,21:50:00,00-31.3400N,150-48.6300E,327,29.837,33.8144
9154,2003/9/14,21:51:00,00-31.5800N,150-48.4700E,326,29.843,33.814
9155,2003/9/14,21:52:00,00-31.7900N,150-48.3400E,326,29.861,33.8135
9156,2003/9/14,21:53:00,00-31.9800N,150-48.2100E,326,29.87,33.8132
9157,2003/9/14,21:54:00,00-32.1900N,150-48.0800E,327,29.882,33.8124
9158,2003/9/14,21:55:00,00-32.3900N,150-47.9500E,327,29.883,33.8121
9159,2003/9/14,21:56:00,00-32.4800N,150-47.9000E,327,29.88,33.8106
9160,2003/9/14,21:57:00,00-32.8000N,150-47.6900E,327,29.876,33.8088
9161,2003/9/14,21:58:00,00-33.0200N,150-47.5500E,327,29.881,33.8065
9162,2003/9/14,21:59:00,00-33.2000N,150-47.4400E,327,29.89,33.8027
9163,2003/9/14,22:00:00,00-33.4400N,150-47.2900E,326,29.9,33.8018
9164,2003/9/14,22:01:00,00-33.6400N,150-47.1500E,326,29.92,33.803
9165,2003/9/14,22:02:00,00-33.8500N,150-47.0200E,327,29.937,33.8026
9166,2003/9/14,22:03:00,00-34.0300N,150-46.9000E,327,29.941,33.8015
9167,2003/9/14,22:04:00,00-34.2700N,150-46.7600E,327,29.939,33.8019
9168,2003/9/14,22:05:00,00-34.4600N,150-46.6300E,327,29.939,33.8003
9169,2003/9/14,22:06:00,00-34.6100N,150-46.5400E,327,29.938,33.7973
9170,2003/9/14,22:07:00,00-34.8200N,150-46.4000E,327,29.915,33.7977
9171,2003/9/14,22:08:00,00-35.0500N,150-46.2600E,327,29.885,33.791
9172,2003/9/14,22:09:00,00-35.1900N,150-46.1700E,326,29.869,33.7858
9173,2003/9/14,22:10:00,00-35.4800N,150-45.9800E,327,29.87,33.7761
9174,2003/9/14,22:11:00,00-35.6600N,150-45.8600E,327,29.87,33.7705
9175,2003/9/14,22:12:00,00-35.9200N,150-45.7000E,327,29.87,33.7667
9176,2003/9/14,22:13:00,00-36.1400N,150-45.5700E,327,29.862,33.7621
9177,2003/9/14,22:14:00,00-36.2800N,150-45.4800E,327,29.857,33.7616
9178,2003/9/14,22:15:00,00-36.5100N,150-45.3300E,326,29.859,33.766
9179,2003/9/14,22:16:00,00-36.7700N,150-45.1700E,327,29.854,33.7725
9180,2003/9/14,22:17:00,00-36.9700N,150-45.0400E,327,29.862,33.7796
9181,2003/9/14,22:18:00,00-37.1400N,150-44.9300E,327,29.872,33.7827
9182,2003/9/14,22:19:00,00-37.3700N,150-44.7900E,327,29.87,33.7838
9183,2003/9/14,22:20:00,00-37.5900N,150-44.6500E,327,29.867,33.7873
9184,2003/9/14,22:21:00,00-37.8100N,150-44.5100E,327,29.863,33.789
9185,2003/9/14,22:22:00,00-37.9100N,150-44.4400E,327,29.857,33.7918
9186,2003/9/14,22:23:00,00-38.1500N,150-44.2900E,326,29.864,33.7929
9187,2003/9/14,22:24:00,00-38.4300N,150-44.1100E,327,29.853,33.7936
9188,2003/9/14,22:25:00,00-38.6300N,150-43.9800E,327,29.854,33.7923
9189,2003/9/14,22:26:00,00-38.8200N,150-43.8600E,327,29.851,33.7712
9190,2003/9/14,22:27:00,00-39.0300N,150-43.7200E,326,29.852,33.7954
9191,2003/9/14,22:28:00,00-39.2500N,150-43.5800E,327,29.852,33.7964
9192,2003/9/14,22:29:00,00-39.4500N,150-43.4600E,327,29.847,33.7971
9193,2003/9/14,22:30:00,00-39.6500N,150-43.3300E,327,29.843,33.798
9194,2003/9/14,22:31:00,00-39.8000N,150-43.2300E,327,29.845,33.7982
9195,2003/9/14,22:32:00,00-40.0800N,150-43.0600E,326,29.848,33.7974
9196,2003/9/14,22:33:00,00-40.1800N,150-42.9900E,327,29.854,33.7958
9197,2003/9/14,22:34:00,00-40.4800N,150-42.8000E,327,29.847,33.7929
9198,2003/9/14,22:35:00,00-40.6700N,150-42.6800E,327,29.851,33.7882
9199,2003/9/14,22:36:00,00-40.9000N,150-42.5300E,326,29.851,33.7859
9200,2003/9/14,22:37:00,00-41.0400N,150-42.4400E,326,29.858,33.7858
9201,2003/9/14,22:38:00,00-41.2700N,150-42.2900E,327,29.855,33.7829
9202,2003/9/14,22:39:00,00-41.5100N,150-42.1400E,327,29.863,33.7784
9203,2003/9/14,22:40:00,00-41.7000N,150-42.0200E,326,29.866,33.779
9204,2003/9/14,22:41:00,00-41.9000N,150-41.8900E,327,29.869,33.7797
9205,2003/9/14,22:42:00,00-42.1500N,150-41.7300E,327,29.869,33.78
9206,2003/9/14,22:43:00,00-42.2800N,150-41.6400E,327,29.882,33.7824
9207,2003/9/14,22:44:00,00-42.5500N,150-41.4700E,327,29.899,33.7852
9208,2003/9/14,22:45:00,00-42.6800N,150-41.3900E,327,29.901,33.7869
9209,2003/9/14,22:46:00,00-42.9700N,150-41.2000E,326,29.909,33.7861
9210,2003/9/14,22:47:00,00-43.1700N,150-41.0700E,326,29.914,33.786
9211,2003/9/14,22:48:00,00-43.2700N,150-41.0100E,327,29.906,33.7916
9212,2003/9/14,22:49:00,00-43.4900N,150-40.8700E,326,29.899,33.7966
9213,2003/9/14,22:50:00,00-43.7800N,150-40.6800E,326,29.872,33.7972
9214,2003/9/14,22:51:00,00-44.0000N,150-40.5300E,327,29.843,33.7965
9215,2003/9/14,22:52:00,00-44.1800N,150-40.4200E,327,29.836,33.7932
9216,2003/9/14,22:53:00,00-44.3500N,150-40.3100E,326,29.834,33.7914
9217,2003/9/14,22:54:00,00-44.6100N,150-40.1400E,326,29.84,33.7897
9218,2003/9/14,22:55:00,00-44.7600N,150-40.0400E,326,29.837,33.7892
9219,2003/9/14,22:56:00,00-44.9800N,150-39.9000E,326,29.833,33.7806
9220,2003/9/14,22:57:00,00-45.1800N,150-39.7700E,326,29.828,33.7691
9221,2003/9/14,22:58:00,00-45.3900N,150-39.6300E,326,29.835,33.7505
9222,2003/9/14,22:59:00,00-45.6100N,150-39.4900E,326,29.833,33.7418
9223,2003/9/14,23:00:00,00-45.8500N,150-39.3400E,326,29.835,33.7292
9224,2003/9/14,23:01:00,00-46.0300N,150-39.2200E,327,29.839,33.716
9225,2003/9/14,23:02:00,00-46.2100N,150-39.1100E,327,29.83,33.7159
9226,2003/9/14,23:03:00,00-46.4800N,150-38.9400E,327,29.829,33.7237
9227,2003/9/14,23:04:00,00-46.6700N,150-38.8100E,326,29.834,33.7301
9228,2003/9/14,23:05:00,00-46.8900N,150-38.6700E,326,29.826,33.7396
9229,2003/9/14,23:06:00,00-47.1100N,150-38.5300E,327,29.822,33.7421
9230,2003/9/14,23:07:00,00-47.3000N,150-38.4000E,327,29.808,33.7431
9231,2003/9/14,23:08:00,00-47.5200N,150-38.2700E,327,29.802,33.7343
9232,2003/9/14,23:09:00,00-47.7300N,150-38.1400E,327,29.795,33.7266
9233,2003/9/14,23:10:00,00-47.9000N,150-38.0300E,327,29.801,33.7257
9234,2003/9/14,23:11:00,00-48.0600N,150-37.9300E,327,29.793,33.7284
9235,2003/9/14,23:12:00,00-48.3400N,150-37.7500E,326,29.794,33.7321
9236,2003/9/14,23:13:00,00-48.5000N,150-37.6400E,327,29.796,33.7337
9237,2003/9/14,23:14:00,00-48.7600N,150-37.4800E,327,29.797,33.7344
9238,2003/9/14,23:15:00,00-48.9200N,150-37.3800E,327,29.793,33.7362
9239,2003/9/14,23:16:00,00-49.1800N,150-37.2100E,327,29.798,33.7404
9240,2003/9/14,23:17:00,00-49.3500N,150-37.1000E,327,29.803,33.7452
9241,2003/9/14,23:18:00,00-49.5600N,150-36.9700E,327,29.795,33.75
9242,2003/9/14,23:19:00,00-49.7800N,150-36.8300E,326,29.792,33.7483
9243,2003/9/14,23:20:00,00-50.0000N,150-36.6900E,327,29.789,33.7458
9244,2003/9/14,23:21:00,00-50.1900N,150-36.5600E,327,29.784,33.7463
9245,2003/9/14,23:22:00,00-50.3600N,150-36.4500E,326,29.783,33.7498
9246,2003/9/14,23:23:00,00-50.5600N,150-36.3200E,327,29.786,33.7522
9247,2003/9/14,23:24:00,00-50.6600N,150-36.2600E,327,29.79,33.7573
9248,2003/9/14,23:25:00,00-51.0400N,150-36.0200E,327,29.799,33.7609
9249,2003/9/14,23:26:00,00-51.2400N,150-35.8900E,327,29.806,33.7675
9250,2003/9/14,23:27:00,00-51.3900N,150-35.8000E,327,29.813,33.7728
9251,2003/9/14,23:28:00,00-51.6500N,150-35.6300E,327,29.814,33.7763
9252,2003/9/14,23:29:00,00-51.8500N,150-35.5000E,327,29.808,33.7772
9253,2003/9/14,23:30:00,00-52.0600N,150-35.3700E,327,29.81,33.7759
9254,2003/9/14,23:31:00,00-52.2100N,150-35.2700E,327,29.814,33.7755
9255,2003/9/14,23:32:00,00-52.3800N,150-35.1600E,327,29.822,33.776
9256,2003/9/14,23:33:00,00-52.6900N,150-34.9700E,327,29.831,33.7748
9257,2003/9/14,23:34:00,00-52.8200N,150-34.8800E,327,29.84,33.7743
9258,2003/9/14,23:35:00,00-53.1000N,150-34.7100E,327,29.844,33.7747
9259,2003/9/14,23:36:00,00-53.3000N,150-34.5800E,327,29.842,33.776
9260,2003/9/14,23:37:00,00-53.5200N,150-34.4500E,328,29.844,33.7738
9261,2003/9/14,23:38:00,00-53.6700N,150-34.3500E,327,29.845,33.7717
9262,2003/9/14,23:39:00,00-53.9400N,150-34.1800E,327,29.847,33.7701
9263,2003/9/14,23:40:00,00-54.1400N,150-34.0500E,327,29.849,33.7717
9264,2003/9/14,23:41:00,00-54.3500N,150-33.9200E,328,29.852,33.7699
9265,2003/9/14,23:42:00,00-54.5700N,150-33.7900E,328,29.847,33.7698
9266,2003/9/14,23:43:00,00-54.7700N,150-33.6600E,327,29.847,33.7702
9267,2003/9/14,23:44:00,00-54.9800N,150-33.5300E,327,29.849,33.7723
9268,2003/9/14,23:45:00,00-55.2000N,150-33.4000E,328,29.854,33.773
9269,2003/9/14,23:46:00,00-55.3900N,150-33.2800E,328,29.86,33.7733
9270,2003/9/14,23:47:00,00-55.6000N,150-33.1400E,327,29.855,33.7747
9271,2003/9/14,23:48:00,00-55.8100N,150-33.0100E,327,29.872,33.7742
9272,2003/9/14,23:49:00,00-56.0200N,150-32.8800E,327,29.833,33.774
9273,2003/9/14,23:50:00,00-56.2100N,150-32.7600E,327,29.836,33.7734
9274,2003/9/14,23:51:00,00-56.4100N,150-32.6400E,327,29.837,33.7601
9275,2003/9/14,23:52:00,00-56.5600N,150-32.5400E,327,29.863,33.7451
9276,2003/9/14,23:53:00,00-56.8200N,150-32.3700E,327,29.87,33.7402
9277,2003/9/14,23:54:00,00-57.0600N,150-32.2300E,327,29.87,33.7423
9278,2003/9/14,23:55:00,00-57.2200N,150-32.1300E,327,29.877,33.7433
9279,2003/9/14,23:56:00,00-57.5000N,150-31.9500E,327,29.873,33.7433
9280,2003/9/14,23:57:00,00-57.6000N,150-31.8900E,328,29.873,33.7361
9281,2003/9/14,23:58:00,00-57.9100N,150-31.7000E,327,29.841,33.728
9282,2003/9/14,23:59:00,00-58.0300N,150-31.6200E,327,29.823,33.7272
9283,2003/9/15,0:00:00,00-58.3300N,150-31.4300E,327,29.831,33.716
9284,2003/9/15,0:01:00,00-58.5300N,150-31.3000E,327,29.817,33.6928
9285,2003/9/15,0:02:00,00-58.7200N,150-31.1800E,327,29.754,33.6868
9286,2003/9/15,0:03:00,00-58.8400N,150-31.1000E,328,29.721,33.6719
9287,2003/9/15,0:04:00,00-59.1400N,150-30.9200E,328,29.703,33.6586
9288,2003/9/15,0:05:00,00-59.3600N,150-30.7900E,327,29.7,33.6834
9289,2003/9/15,0:06:00,00-59.5600N,150-30.6600E,327,29.694,33.7036
9290,2003/9/15,0:07:00,00-59.7800N,150-30.5200E,327,29.692,33.7161
9291,2003/9/15,0:08:00,00-59.9800N,150-30.4000E,327,29.681,33.7206
9292,2003/9/15,0:09:00,01-00.1800N,150-30.2700E,327,29.672,33.7184
9293,2003/9/15,0:10:00,01-00.3300N,150-30.1700E,327,29.666,33.7085
9294,2003/9/15,0:11:00,01-00.6000N,150-30.0000E,327,29.658,33.6908
9295,2003/9/15,0:12:00,01-00.8100N,150-29.8700E,327,29.657,33.6748
9296,2003/9/15,0:13:00,01-00.9100N,150-29.8000E,327,29.656,33.6656
9297,2003/9/15,0:14:00,01-01.1800N,150-29.6300E,327,29.655,33.6614
9298,2003/9/15,0:15:00,01-01.4100N,150-29.4900E,327,29.657,33.657
9299,2003/9/15,0:16:00,01-01.6400N,150-29.3400E,327,29.665,33.659
9300,2003/9/15,0:17:00,01-01.8300N,150-29.2200E,327,29.672,33.6529
9301,2003/9/15,0:18:00,01-02.0500N,150-29.0800E,327,29.683,33.6708
9302,2003/9/15,0:19:00,01-02.2400N,150-28.9600E,326,29.691,33.6787
9303,2003/9/15,0:20:00,01-02.4600N,150-28.8200E,326,29.703,33.6818
9304,2003/9/15,0:21:00,01-02.6700N,150-28.6800E,328,29.702,33.6936
9305,2003/9/15,0:22:00,01-02.8400N,150-28.5800E,328,29.669,33.7017
9306,2003/9/15,0:23:00,01-03.0700N,150-28.4500E,328,29.649,33.7059
9307,2003/9/15,0:24:00,01-03.2800N,150-28.3100E,327,29.642,33.7079
9308,2003/9/15,0:25:00,01-03.4400N,150-28.2100E,327,29.623,33.7094
9309,2003/9/15,0:26:00,01-03.6900N,150-28.0500E,328,29.579,33.7136
9310,2003/9/15,0:27:00,01-03.9100N,150-27.9200E,327,29.562,33.7059
9311,2003/9/15,0:28:00,01-04.0500N,150-27.8300E,328,29.562,33.6923
9312,2003/9/15,0:29:00,01-04.3100N,150-27.6700E,327,29.567,33.69
9313,2003/9/15,0:30:00,01-04.4700N,150-27.5700E,328,29.56,33.7012
9314,2003/9/15,0:31:00,01-04.6700N,150-27.4500E,327,29.561,33.711
9315,2003/9/15,0:32:00,01-04.7900N,150-27.3700E,327,29.557,33.7141
9316,2003/9/15,0:33:00,01-05.1200N,150-27.1600E,327,29.55,33.7186
9317,2003/9/15,0:34:00,01-05.3500N,150-27.0200E,327,29.552,33.7206
9318,2003/9/15,0:35:00,01-05.5800N,150-26.8800E,327,29.554,33.7237
9319,2003/9/15,0:36:00,01-05.7700N,150-26.7500E,327,29.558,33.7305
9320,2003/9/15,0:37:00,01-05.9300N,150-26.6600E,327,29.553,33.732
9321,2003/9/15,0:38:00,01-06.1900N,150-26.5000E,327,29.554,33.731
9322,2003/9/15,0:39:00,01-06.4000N,150-26.3600E,328,29.552,33.7296
9323,2003/9/15,0:40:00,01-06.5700N,150-26.2600E,327,29.553,33.7261
9324,2003/9/15,0:41:00,01-06.7300N,150-26.1600E,327,29.571,33.7184
9325,2003/9/15,0:42:00,01-07.0300N,150-25.9800E,328,29.575,33.7118
9326,2003/9/15,0:43:00,01-07.2300N,150-25.8500E,327,29.569,33.7097
9327,2003/9/15,0:44:00,01-07.4400N,150-25.7200E,327,29.558,33.7075
9328,2003/9/15,0:45:00,01-07.6200N,150-25.6100E,327,29.566,33.7019
9329,2003/9/15,0:46:00,01-07.8600N,150-25.4600E,327,29.558,33.6972
9330,2003/9/15,0:47:00,01-08.0600N,150-25.3300E,327,29.55,33.6998
9331,2003/9/15,0:48:00,01-08.2400N,150-25.2200E,327,29.543,33.7101
9332,2003/9/15,0:49:00,01-08.4500N,150-25.0900E,328,29.55,33.7158
9333,2003/9/15,0:50:00,01-08.6500N,150-24.9700E,328,29.548,33.7198
9334,2003/9/15,0:51:00,01-08.8800N,150-24.8200E,327,29.543,33.7244
9335,2003/9/15,0:52:00,01-09.0900N,150-24.6900E,328,29.545,33.7299
9336,2003/9/15,0:53:00,01-09.3100N,150-24.5600E,328,29.542,33.7323
9337,2003/9/15,0:54:00,01-09.5200N,150-24.4300E,327,29.538,33.7322
9338,2003/9/15,0:55:00,01-09.6900N,150-24.3200E,327,29.538,33.7329
9339,2003/9/15,0:56:00,01-09.8700N,150-24.2100E,327,29.539,33.7332
9340,2003/9/15,0:57:00,01-10.1400N,150-24.0400E,328,29.539,33.7336
9341,2003/9/15,0:58:00,01-10.2400N,150-23.9800E,327,29.541,33.733
9342,2003/9/15,0:59:00,01-10.5500N,150-23.7900E,327,29.554,33.731
9343,2003/9/15,1:00:00,01-10.7500N,150-23.6600E,328,29.563,33.7307
9344,2003/9/15,1:01:00,01-10.9500N,150-23.5400E,328,29.56,33.7349
9345,2003/9/15,1:02:00,01-11.1800N,150-23.4000E,328,29.573,33.7357
9346,2003/9/15,1:03:00,01-11.3200N,150-23.3200E,328,29.57,33.7339